{"data":{"norad_id":56028,"epoch":"2026-05-24T17:09:38.391552Z","epoch_age_seconds":95576,"freshness":"FRESH","line1":"1 56028U 23042AU  26144.71502768 -.00000210  00000+0  19035-5 0  9991","line2":"2 56028  43.0062 335.7738 0002127 246.3790 113.6839 15.27590108174660","mean_motion":15.27590108,"eccentricity":0.0002127,"inclination_deg":43.0062,"raan_deg":335.7738,"arg_perigee_deg":246.379,"mean_anomaly_deg":113.6839,"bstar":1.9035e-6,"rev_number":17466,"period_min":94.266124954509,"perigee_km":481.55946137334,"apogee_km":484.47819706309,"semimajor_km":6861.1558292182,"source":"CELESTRAK","updated_at":"2026-05-25T13:38:17.950110Z"}}